Kezdőlap
METAR-TAF:

METAR-TAF

Repülőterek :

Ortonville Municipal Airport (Martinson Field)

Ortonville, Minnesota, Amerikai Egyesült Államok

földrajzi szélesség: 45-18-20N, földrajzi hosszúság: 096-25-28W, magasság: 335 m

Jelenlegi meteorológiai megfigyelések

A jelentés 10 perccel ezelõtt készült, 07:35 UTC
Nyugat-északnyugati szél 6 kt
Hőmérséklet 21°C
Páratartalom 49%
Légköri nyomás 1010 hPa
Látótávolság: 16.1 km
Derült ég

METAR: KVVV 180735Z AUTO 29006KT 10SM CLR 21/10 A2982 RMK AO2

Idő: 02:45 (07:45 UTC)


TAF: hiányzik

Meteorológiai megfigyelések és előrejelzések több, mint 4000 repülőtéren (METAR és TAF jelentéseket).

A térképen piros és sárga pontok jelzik az elérhető meteorológiai állomásokat.

Mozgassa az egeret a pont fölött, hogy megjelenjen az állomás neve.

Azután kattintson az időjárási megfigyelések és előrejelzések megtekintéséhez.

A térkép megváltoztatása: kattintson a fekete keresztel jelölt zöld gombra ráközelítéshez, a vonallal jelölt zöld gombra távolításhoz, vagy a zöld nyilakra a szomszédos térképek eléréséhez.


METAR-TAF: